Weather in Kondopoga

Russia / Republic of Karelia     62°12′17″N   34°16′21″E
temp.,
°C
wind,
m/s
gust,
m/s
humid.,
%
clouds,
%
prec.,
mm/h
press.,
hPa
HPBL,
m
6 august, fri
fri600:00+11nne117524 0.0 101810
03:00+10ne227839 0.0 101816
06:00+13ene2869100 0.0 1018311
09:00+16e375986 0.0 1019544
12:00+20e463316 0.0 10182329
15:00+21ene46317 0.0 10172508
18:00+20e363714 0.0 10172249
21:00+13e117590 0.0 101811
7 august, sat
sat700:00+12ene22855 0.0 101819
03:00+11ene310896 0.0 1018261
06:00+14ene4107792 0.0 1018648
09:00+17e5106546 0.0 1017831
12:00+21e595097 0.0 10161472
15:00+20ese51062100 0.0 10161302
18:00+18e41165100 0.0 10151233
21:00+18ese61163100 0.0 10151195
8 august, sun
sun800:00+14e61494100 1.6 1015757
03:00+14e61595100 2.1 1014853
06:00+14e51196100 0.3 1014824
09:00+14e41096100 0.6 1013737
12:00+14e4997100 1.1 1014687
15:00+14e3897100 2.1 1014602
18:00+14ene3697100 0.1 1015443
21:00+13ne1498100 0.1 1015266
9 august, mon
mon900:00+13ne249877 0.0 1016182
03:00+13nne1298100 0.0 1016109
06:00+14ene1296100 0.0 1016118
09:00+16e118994 0.0 1016283
12:00+19sse2269100 0.1 1016855
15:00+21se336443 0.1 1017907
18:00+20ese346797 0.0 1016505
21:00+17ese278099 0.0 1016188
10 august, tue
tue1000:00+16e2989100 0.1 1016241
03:00+15se2398100 0.1 101566
06:00+15s269790 0.0 1016167
09:00+19sw368696 0.1 1017561
12:00+19wsw347591 0.0 1018721
15:00+24wsw245097 0.0 10171596
18:00+20se377348 0.1 1018279
21:00+17sse228581 0.1 101822